Theta_e
299 300 300 300 300 300 300 301 301 301 301 301 301 302 302 303 303 303 304 304 304 305 305 305 305 306 305 305 305 306 310 310 307 306 307 306 304 304 305 305 303 305 306 307 308 309 309 310 310 310 311 310 312 311 311 311 312 316 316 312 310 309 308 308 308 308 307 306 305 305 306 306 305 306 306 306 306 306 306 306 306 306 305 305 305 305 304 303
299 300 300 300 300 300 300 301 301 301 301 301 301 302 303 303 303 303 304 304 305 306 306 305 305 306 306 305 305 304 307 311 308 306 306 304 304 305 306 305 304 305 306 307 308 310 309 309 309 310 309 309 310 310 311 310 310 312 312 310 309 307 307 307 307 307 307 305 305 305 306 305 304 306 306 306 307 307 307 306 306 306 305 305 305 304 304 304
300 300 300 300 300 300 300 301 301 301 301 301 302 303 303 303 304 304 304 304 305 306 307 308 306 305 305 305 305 304 307 311 308 306 306 304 305 306 306 306 304 305 307 308 308 310 311 310 310 309 308 308 308 309 309 309 309 309 309 307 307 307 306 306 306 306 306 306 306 305 305 305 305 306 306 307 307 307 306 305 306 305 305 305 304 304 304 303
300 300 300 300 301 301 301 301 301 301 301 302 303 303 304 304 304 304 304 305 304 305 307 309 309 307 305 304 305 304 309 313 308 305 305 304 305 306 307 308 306 307 309 310 310 310 311 311 311 310 310 309 308 308 307 308 309 308 307 306 306 306 305 305 305 305 305 306 306 305 306 304 305 306 305 306 307 307 306 305 305 305 304 304 304 304 304 302
300 300 300 301 301 301 301 302 302 302 302 302 303 303 304 303 303 304 305 305 305 305 305 307 309 309 307 305 306 306 310 314 308 305 305 304 305 307 308 309 310 311 313 313 312 311 311 312 312 311 310 309 309 308 307 307 308 307 306 306 306 306 305 305 304 304 305 306 306 306 306 305 305 305 306 306 306 306 305 305 305 304 304 304 304 304 303 302
300 300 301 301 301 301 302 302 302 302 302 302 303 303 304 304 304 304 305 305 304 305 305 306 307 308 308 307 307 309 311 311 307 304 304 304 305 307 309 309 310 312 313 314 313 313 311 311 312 310 310 308 308 308 307 307 307 307 306 306 306 305 305 304 304 304 305 306 306 306 305 305 306 305 305 305 305 305 305 305 305 304 304 304 304 304 303 302
300 300 301 301 301 301 302 302 302 302 303 303 303 304 304 304 304 305 306 306 306 305 305 305 306 307 308 309 309 308 310 307 304 304 304 304 306 307 309 309 310 311 312 313 314 315 313 311 310 310 310 308 308 307 307 307 307 306 306 305 305 305 305 304 304 305 305 305 305 305 305 305 306 305 305 305 305 305 305 305 305 305 305 305 304 303 303 302
301 301 301 301 301 302 302 302 303 303 303 303 303 304 304 304 305 306 306 307 308 308 307 306 306 306 307 312 312 308 309 306 304 304 304 305 306 307 308 309 309 310 311 312 314 317 315 312 311 310 310 309 309 308 308 307 306 306 305 305 305 304 305 304 305 306 305 305 305 306 306 305 304 305 305 305 305 305 305 305 305 305 305 305 304 303 302 302
301 301 301 302 302 303 303 303 303 303 303 303 304 304 304 305 306 306 306 307 307 308 309 309 308 309 310 314 314 310 308 305 304 305 304 305 305 306 308 308 309 309 310 311 312 315 315 314 313 312 310 309 309 309 309 309 307 306 305 305 305 305 305 305 305 305 306 306 307 307 305 304 305 305 305 305 305 305 305 305 305 306 305 304 303 303 303 302
302 302 302 303 303 303 303 303 304 303 304 304 304 305 305 306 306 307 307 306 306 306 308 309 309 310 311 312 312 309 307 304 304 305 303 305 305 305 307 308 309 309 310 311 311 313 315 315 314 313 311 310 309 308 309 308 306 306 306 305 305 305 305 305 304 304 305 305 307 308 305 304 305 306 305 305 305 305 305 306 306 306 305 304 304 303 303 303
303 303 304 304 304 304 304 304 304 304 304 304 305 306 306 306 306 307 308 307 307 306 305 307 308 309 308 308 309 308 305 304 305 304 303 305 306 306 306 307 308 310 311 312 312 311 313 313 314 315 312 310 308 307 306 306 306 305 306 306 305 306 305 305 305 304 305 304 305 306 306 308 308 306 305 304 305 305 305 306 306 306 305 305 304 304 304 303
304 304 304 304 304 304 304 304 305 304 304 305 306 306 306 307 307 307 307 308 308 308 307 307 309 310 308 307 307 307 305 305 305 305 304 305 307 307 305 306 307 309 310 311 312 312 312 313 314 316 314 310 308 307 307 306 306 306 306 306 305 306 306 306 305 305 306 305 304 304 305 309 309 306 304 305 305 305 306 306 306 305 305 305 304 304 303 303
304 304 304 304 304 304 304 304 305 305 304 305 305 306 306 307 308 308 307 308 309 309 309 309 310 310 310 309 307 306 307 306 306 306 304 305 308 308 306 307 306 307 309 310 311 311 311 311 311 314 314 311 308 308 308 307 306 307 307 307 307 308 306 306 306 305 305 305 304 304 307 309 306 305 304 305 305 305 306 306 306 305 305 305 304 304 304 303
304 304 304 304 304 303 303 304 305 305 305 305 305 306 306 306 307 308 308 308 309 311 311 310 311 311 310 310 308 307 308 307 307 307 306 305 308 308 307 307 307 306 307 309 310 311 311 310 310 312 312 311 309 308 308 307 306 308 310 309 311 313 308 305 306 306 305 305 304 304 308 308 305 305 305 305 305 304 305 306 306 305 305 305 305 304 304 303
304 304 305 304 304 303 303 304 305 306 306 305 305 306 306 306 307 307 308 309 309 312 313 313 314 314 313 310 309 309 308 308 308 307 307 306 306 308 308 308 308 308 309 310 311 312 311 311 312 312 313 311 311 311 310 308 308 310 314 314 315 315 309 306 305 306 305 305 305 305 308 308 306 306 305 305 305 305 305 306 306 305 304 305 304 304 304 304
304 304 304 303 303 303 303 304 305 306 306 307 307 307 307 306 306 307 307 307 310 311 313 314 314 314 315 313 310 310 309 308 308 308 308 306 306 309 310 311 311 309 311 312 312 313 312 314 316 314 312 312 313 315 314 313 312 313 317 316 316 314 310 308 305 305 305 306 306 306 307 307 306 306 305 305 305 305 305 305 305 305 304 304 304 304 304 305
303 303 303 303 303 303 303 305 306 306 307 308 308 308 308 308 307 307 306 306 310 312 313 312 311 314 315 312 311 311 309 308 308 308 308 307 307 310 312 312 312 311 313 314 314 315 314 318 320 314 310 310 310 314 319 320 318 317 317 316 313 311 311 310 307 305 305 306 306 306 306 307 307 306 306 306 305 305 305 305 305 305 305 305 304 304 304 305
303 303 303 303 303 303 304 306 307 307 307 307 308 308 308 309 310 310 309 308 312 315 315 312 313 317 315 311 310 310 308 307 309 308 308 308 308 311 313 313 314 314 317 318 315 316 317 317 316 312 308 307 306 310 318 320 317 315 316 315 313 311 311 310 308 305 304 305 306 307 307 307 307 306 306 306 305 304 304 305 305 305 305 304 304 304 304 305
303 303 303 303 303 304 306 308 307 307 307 306 306 306 306 310 312 310 309 310 313 316 315 313 314 317 314 310 309 308 307 308 310 308 307 309 310 313 315 314 317 318 319 319 316 316 316 312 312 312 308 306 305 307 310 310 310 312 313 313 313 312 311 309 307 305 304 305 306 307 308 307 307 307 306 306 305 305 305 305 306 306 306 305 305 305 305 305
303 303 304 304 303 305 307 308 308 307 307 306 306 308 313 317 315 310 308 309 311 312 313 313 313 313 311 309 308 307 309 312 311 307 307 310 311 314 315 316 320 319 317 319 317 316 312 309 310 310 307 305 305 306 307 307 308 310 311 312 312 312 311 308 306 305 304 306 308 308 308 307 308 308 307 306 305 305 306 306 305 306 306 305 305 305 305 305
303 303 304 304 304 306 307 307 307 307 307 306 308 315 320 322 320 312 309 311 310 309 311 311 310 310 309 308 306 306 312 316 313 307 306 309 312 315 316 318 320 318 316 317 317 313 310 309 309 307 305 305 305 307 306 307 308 309 311 312 312 313 311 308 306 305 305 307 308 308 308 308 308 308 307 306 305 305 306 305 305 304 304 305 305 305 305 304
303 303 304 304 304 306 308 307 307 307 308 308 311 313 311 311 314 311 311 313 310 309 311 310 310 310 309 308 306 307 311 315 313 309 306 309 314 317 318 317 316 315 315 317 318 314 311 310 308 305 304 305 307 308 307 307 308 310 312 313 314 313 311 310 307 305 305 306 308 308 308 307 307 308 307 306 305 306 307 305 305 304 304 304 304 304 305 306
304 304 304 304 304 305 307 308 308 308 309 309 309 308 306 306 307 308 313 316 313 310 310 311 312 311 311 309 307 310 311 310 312 310 306 308 313 315 317 316 314 312 312 314 316 315 314 310 307 304 304 306 307 307 307 308 309 311 312 313 313 311 310 311 308 305 305 306 307 307 307 306 307 308 307 306 306 307 308 306 305 305 304 304 304 304 305 305
304 304 304 305 304 305 306 307 307 307 307 307 306 304 304 305 304 307 316 319 318 314 308 309 310 309 310 308 308 312 311 309 310 309 306 308 312 314 314 313 314 314 311 311 311 311 312 308 305 306 306 307 308 307 305 308 312 312 309 309 309 306 306 307 307 306 307 307 307 307 310 311 310 309 307 307 306 307 307 307 306 306 305 305 305 306 306 305
304 304 305 304 304 305 304 306 306 305 306 305 305 304 302 304 302 305 318 321 318 316 310 309 310 308 307 306 310 312 311 310 309 308 307 306 311 314 312 311 313 315 314 313 311 309 310 307 305 307 308 308 309 308 305 307 313 313 307 305 305 304 303 305 307 309 313 313 308 307 315 318 312 309 309 307 306 306 307 307 306 305 305 305 305 305 305 305
304 305 305 305 305 304 305 309 305 304 309 305 302 303 303 304 301 305 320 323 315 315 313 314 313 311 308 309 311 311 314 315 308 307 308 306 308 311 313 312 311 314 314 311 310 309 309 308 307 308 309 310 311 308 306 305 311 314 307 304 304 304 304 306 307 311 317 317 309 307 313 318 314 310 310 308 306 307 308 307 307 305 305 305 305 305 305 304
304 304 305 305 305 304 309 312 305 306 318 312 302 303 304 303 301 306 318 320 315 314 313 314 314 311 311 311 311 312 316 316 309 308 308 307 308 309 314 315 312 313 309 309 312 310 308 308 307 309 311 312 311 309 306 304 309 314 307 303 305 304 305 307 308 311 314 313 311 310 311 314 317 313 310 308 308 309 309 308 307 306 305 305 305 305 305 304
304 304 305 305 305 304 306 309 307 307 313 309 300 302 304 302 302 310 319 315 311 311 310 313 312 309 311 312 312 314 313 312 312 311 309 308 309 311 315 314 313 312 309 314 317 310 308 309 307 309 311 310 308 307 305 304 308 310 305 304 305 304 305 307 309 311 312 312 314 312 310 314 319 314 308 308 308 309 310 308 307 306 306 305 305 305 305 305
304 304 305 305 305 304 303 304 306 304 303 301 301 302 301 302 307 317 319 312 310 310 310 313 312 310 314 315 314 314 312 312 313 311 310 310 308 311 314 313 314 313 310 315 316 310 308 306 305 308 308 307 307 305 304 304 307 307 304 305 305 304 306 307 309 311 311 315 317 311 308 313 318 315 310 309 309 309 309 308 307 306 306 305 305 305 305 304
304 304 305 305 305 304 303 302 301 301 300 300 302 301 301 308 316 319 315 312 313 313 311 313 313 311 315 317 316 314 313 312 311 311 313 313 310 311 312 311 314 314 310 310 311 308 306 303 304 306 305 305 305 304 305 305 306 306 306 307 307 307 307 308 309 309 313 320 316 308 307 309 314 316 313 311 310 308 308 307 307 307 306 306 306 306 305 304
304 304 304 305 304 304 308 306 300 300 301 301 302 304 309 318 321 318 313 312 314 313 313 315 314 312 314 317 315 313 314 313 312 312 313 312 310 310 310 310 313 316 314 313 312 309 307 307 307 305 303 304 305 306 307 304 303 306 307 308 312 314 311 311 311 310 318 325 314 307 306 307 314 315 310 308 308 307 307 306 306 306 306 306 306 306 305 304
303 304 304 304 304 304 309 307 300 299 301 301 304 311 319 321 318 316 312 311 313 314 314 314 313 311 313 315 313 310 313 314 312 313 314 314 310 307 309 308 309 317 320 318 317 314 311 309 307 306 305 304 307 310 310 308 306 308 309 311 319 324 319 319 320 319 322 322 311 306 307 310 315 312 307 307 307 306 307 306 306 306 305 306 306 305 305 305
303 303 303 303 303 302 304 302 299 301 301 302 310 320 321 317 316 315 311 311 312 311 312 312 311 310 312 316 313 309 312 313 313 313 314 316 314 309 309 306 306 315 320 317 318 318 316 312 309 308 307 305 306 309 313 312 310 311 312 314 322 324 323 324 325 323 325 320 309 304 308 315 316 311 307 307 306 305 306 306 306 305 305 305 306 306 306 307
304 304 303 303 303 302 303 301 301 301 300 306 319 325 319 317 316 312 310 311 307 306 308 310 312 312 312 314 312 308 313 315 313 314 314 313 313 312 310 307 306 308 312 315 315 315 320 320 313 310 308 306 305 305 306 306 308 311 309 311 318 317 318 323 323 324 326 322 313 307 310 317 316 312 308 306 306 305 305 305 305 306 306 307 307 307 307 308
304 304 304 303 302 302 303 302 302 301 304 316 326 324 319 318 315 314 313 310 306 307 308 307 313 316 313 312 309 307 313 316 314 313 313 311 311 310 308 305 305 305 308 315 314 312 319 321 311 306 305 303 304 304 302 303 310 312 309 312 316 312 311 317 319 317 316 317 318 316 317 317 312 309 307 305 306 305 305 306 305 306 307 307 307 308 308 308
304 305 306 303 302 303 303 304 302 301 309 324 328 322 318 314 312 316 316 309 307 310 311 311 315 318 316 314 312 311 311 313 313 313 312 310 308 307 306 304 303 303 306 312 312 311 318 320 310 305 305 302 302 302 300 304 311 312 312 314 311 305 306 314 317 311 309 316 323 319 318 317 311 309 307 305 306 305 305 306 305 306 307 306 308 310 310 309
304 307 307 302 302 303 303 304 303 303 314 327 327 319 312 306 305 308 309 308 307 309 312 315 316 316 319 318 314 314 313 312 314 315 313 311 309 307 305 304 303 302 302 305 309 308 312 318 311 306 309 304 299 301 302 303 307 311 313 310 306 305 307 311 316 315 315 321 322 317 317 317 317 314 309 306 307 307 306 306 305 307 307 307 308 309 309 308
303 306 309 305 302 303 304 304 304 307 317 327 324 315 306 304 304 303 304 306 308 310 313 316 315 313 317 319 316 313 314 315 315 315 313 312 311 307 305 305 304 302 300 302 307 306 307 317 314 306 309 307 300 304 308 306 305 308 309 305 306 312 314 313 315 317 318 320 321 319 317 317 318 315 310 309 310 308 307 307 307 306 307 307 307 308 308 308
305 311 317 308 301 303 304 304 306 314 324 327 324 315 306 304 303 301 302 304 307 312 315 315 313 312 313 316 316 313 313 314 313 313 313 313 313 308 305 305 303 301 300 301 306 306 305 315 318 308 306 307 305 308 312 310 305 306 307 306 307 311 312 313 312 313 316 318 320 322 320 318 315 312 310 310 310 308 307 307 308 307 307 307 307 307 308 309
308 317 321 306 301 305 306 307 313 321 326 322 317 310 303 303 303 300 301 304 306 310 314 313 312 313 313 312 312 311 311 311 310 311 312 310 311 310 305 303 302 301 301 302 304 305 306 312 319 312 306 309 311 308 309 310 308 308 310 309 309 309 308 309 310 308 311 315 316 318 320 319 313 309 309 308 308 309 309 308 309 310 308 307 307 308 308 309
309 319 320 305 301 305 307 312 316 316 316 311 309 307 302 302 304 301 300 301 303 305 307 309 311 312 312 312 310 308 309 310 309 310 310 308 310 311 305 301 301 300 302 304 304 305 307 310 314 315 312 315 311 302 300 304 304 306 308 308 308 309 309 313 314 309 308 311 312 313 316 318 312 308 308 307 307 308 308 309 310 310 308 307 307 308 308 309
313 320 316 305 303 306 313 319 313 308 311 309 306 305 303 301 302 302 300 300 302 302 303 306 309 308 308 310 310 307 308 311 309 310 310 308 309 309 303 299 299 299 301 305 306 303 304 307 311 315 313 311 305 298 298 300 300 302 305 305 306 307 308 313 315 312 308 308 308 308 312 317 312 307 306 306 306 306 306 307 309 308 307 306 307 308 309 309
319 318 312 305 302 307 320 325 313 306 305 302 299 300 301 300 301 302 300 301 303 303 305 307 308 308 307 306 308 307 308 311 311 310 308 307 306 303 300 298 299 299 301 305 306 303 304 306 310 314 312 306 300 297 298 298 300 303 305 304 305 306 308 309 309 309 309 310 309 309 313 318 313 307 307 306 306 307 308 308 308 307 306 307 308 308 309 310
315 313 313 308 303 309 326 329 319 310 302 299 300 301 301 300 300 301 300 302 303 303 306 307 306 307 305 303 307 307 306 311 314 311 307 307 306 300 298 299 299 300 303 306 306 305 306 308 309 314 318 315 310 307 306 303 303 307 307 305 305 307 307 307 306 306 310 313 312 312 317 319 313 309 309 308 307 309 309 308 308 308 308 309 310 310 310 310
313 314 316 312 305 311 323 320 316 313 305 303 305 303 303 303 300 300 302 303 302 302 306 307 304 304 302 302 306 306 303 307 312 310 307 307 305 299 297 298 298 300 301 301 301 303 306 307 308 313 320 321 320 319 315 310 308 308 308 306 306 307 308 307 307 308 312 313 310 313 319 318 310 309 310 309 309 309 308 309 309 309 309 310 310 311 310 310
315 318 321 319 312 311 313 309 309 311 308 310 310 305 305 307 303 300 300 302 302 300 302 304 302 303 303 304 311 313 308 304 306 308 308 307 305 299 297 298 299 300 300 299 299 301 303 304 306 309 314 316 316 315 313 309 308 308 308 307 307 307 307 307 308 310 312 311 310 312 314 312 309 309 309 310 309 308 308 308 309 309 309 310 310 310 310 310
315 318 316 317 317 316 314 310 309 310 311 314 313 307 306 308 305 301 299 300 301 299 300 301 302 305 308 308 313 316 311 305 304 307 308 306 304 299 297 298 299 299 301 299 298 300 302 306 307 307 309 310 309 309 308 307 306 306 307 308 309 307 306 307 307 310 312 311 312 313 311 310 310 308 308 308 307 307 307 307 307 308 308 309 308 308 308 308
313 314 306 305 314 319 317 315 312 311 312 312 310 308 308 308 307 306 302 300 299 299 303 305 305 307 310 310 313 314 312 310 309 308 307 305 304 301 300 299 298 300 301 299 297 299 302 306 306 304 306 308 306 306 306 305 304 305 305 307 308 307 307 307 306 307 309 310 312 312 311 309 308 306 306 306 306 306 306 306 307 308 307 307 307 308 308 308
309 310 303 301 309 311 310 312 311 312 312 310 307 307 308 310 311 307 303 301 301 300 303 309 310 308 308 309 311 314 314 313 312 311 308 305 304 304 305 304 300 298 299 298 297 298 302 306 306 303 304 305 305 305 305 304 305 305 305 306 307 307 307 306 305 305 306 307 307 307 307 306 305 305 305 305 305 306 306 306 307 307 307 308 308 308 308 308
310 311 307 307 308 304 303 307 309 313 313 310 311 310 307 310 312 307 303 305 309 304 301 308 311 309 309 309 309 312 313 312 314 312 309 307 307 305 306 307 304 298 297 298 298 296 300 306 306 303 304 306 307 307 307 307 307 305 305 306 306 307 307 305 305 305 305 306 305 305 305 305 304 304 305 306 306 307 307 307 307 307 307 308 309 309 308 307
304 304 305 312 313 305 305 307 307 312 313 310 313 313 308 311 312 308 305 306 310 308 304 308 312 309 307 308 308 310 311 311 313 311 308 309 309 306 305 306 305 302 299 298 298 298 299 304 305 303 307 309 308 308 309 308 308 308 308 307 306 306 307 306 306 305 305 306 305 305 306 306 304 306 308 308 309 309 309 308 308 308 308 309 309 309 307 306
302 302 303 312 317 308 306 308 307 311 313 314 317 313 310 313 311 308 308 307 306 307 306 307 310 308 307 308 309 308 307 307 306 304 304 305 304 304 304 305 305 305 302 298 299 300 299 302 304 304 308 310 307 307 308 308 314 319 316 312 309 306 306 306 306 306 305 305 305 307 309 308 307 308 308 308 308 308 308 308 308 309 308 308 308 307 307 306
Wind_Speed
8 8 8 8 8 8 8 7 7 6 7 7 7 8 8 9 11 10 11 14 16 14 11 11 10 9 6 4 1 6 12 17 30 44 35 26 34 29 24 21 16 16 14 14 18 11 6 7 7 9 8 7 6 4 6 8 6 2 3 6 5 4 4 4 5 4 5 5 4 3 4 4 4 2 2 2 2 3 3 5 3 4 7 7 7 8 10 11
8 9 9 9 9 9 8 8 7 6 6 6 8 9 10 11 11 10 9 12 14 16 13 6 7 11 11 8 6 3 5 13 31 37 29 33 35 28 24 20 15 16 16 14 18 15 9 8 10 10 7 5 6 6 6 6 7 6 4 5 5 4 4 4 6 6 5 5 5 4 4 5 4 4 3 2 3 5 4 6 5 4 7 8 10 11 11 11
9 9 9 9 9 10 9 8 7 6 6 7 8 10 11 12 13 13 8 8 11 18 23 16 6 4 9 9 9 6 4 12 29 25 29 38 34 27 24 20 15 14 14 11 13 14 11 10 11 9 6 7 6 7 8 6 6 6 5 5 4 4 6 6 7 7 6 4 5 4 3 5 4 4 3 4 3 4 6 5 5 6 7 7 10 12 12 10
9 9 9 10 10 11 10 10 9 7 7 8 8 9 10 11 15 17 10 5 8 15 24 24 18 9 2 7 6 4 4 7 15 18 31 38 33 27 23 21 16 12 13 11 8 7 8 11 12 7 6 7 6 8 10 7 4 5 5 6 5 5 6 6 7 7 6 4 4 3 1 4 3 3 5 6 3 3 6 5 5 6 6 7 8 11 12 11
9 9 10 10 11 11 11 10 9 8 7 7 7 7 8 11 14 17 10 4 5 10 17 23 27 23 13 3 4 3 3 3 8 22 32 35 32 25 23 24 18 14 14 12 8 3 3 7 8 7 7 6 5 7 8 6 4 5 7 8 6 6 6 6 6 5 5 3 3 2 2 3 1 2 5 7 5 3 4 4 4 4 6 6 8 10 10 11
10 10 10 10 10 10 10 10 8 7 6 6 7 7 8 11 13 14 11 5 3 5 7 10 16 24 27 20 16 11 4 3 10 25 30 32 31 24 23 25 19 13 14 15 15 9 7 7 7 7 6 7 10 9 7 7 5 6 7 8 8 7 6 6 5 3 4 3 4 4 3 2 1 3 3 5 6 3 3 3 4 4 6 9 9 8 8 8
10 10 9 9 9 10 10 8 7 6 6 6 7 8 9 10 13 14 15 13 7 4 2 2 2 6 14 18 27 25 11 3 14 24 27 29 30 24 21 24 21 15 18 22 19 12 8 8 10 8 6 8 10 10 11 11 10 8 8 7 8 8 7 6 4 2 3 4 5 2 1 2 3 2 1 4 4 3 3 3 4 5 8 9 7 7 8 8
10 9 8 8 9 10 9 8 7 6 6 7 7 8 9 10 11 15 19 22 20 15 5 2 3 1 1 2 12 17 8 7 18 23 23 26 30 27 19 22 25 21 23 25 18 10 6 9 11 6 7 8 6 8 9 10 10 9 8 6 7 7 6 5 4 4 3 4 3 2 0 3 4 2 2 3 4 3 3 3 4 6 8 5 5 6 7 8
10 9 9 9 11 11 10 9 7 7 7 7 7 8 9 11 12 13 14 17 21 25 21 11 4 2 3 1 5 10 6 12 18 20 21 22 28 29 24 24 26 24 24 25 23 15 6 7 9 6 8 7 6 5 3 5 5 6 8 7 7 6 5 4 4 4 3 3 2 2 2 2 2 1 2 3 3 2 2 4 4 5 4 3 4 6 7 7
11 11 12 13 14 13 12 10 9 7 6 5 6 7 9 10 12 12 10 8 8 14 21 24 20 15 14 10 10 9 8 14 16 18 17 19 24 28 30 27 25 23 20 21 25 19 9 7 8 8 9 6 7 7 6 6 5 6 9 8 8 7 4 3 5 4 2 3 3 3 3 2 3 1 1 3 2 1 3 4 3 2 3 3 4 5 6 6
13 14 16 16 16 15 14 13 10 7 5 5 7 8 8 8 9 11 13 11 7 5 7 14 23 29 33 25 13 6 9 13 16 19 15 15 20 25 28 27 24 21 17 17 21 18 12 9 6 5 5 4 7 9 9 8 8 9 10 9 8 7 5 4 5 3 2 2 3 4 2 1 1 1 0 3 1 1 4 5 2 1 2 3 3 4 5 6
14 15 15 15 15 15 15 14 11 8 5 4 6 8 9 10 9 8 11 15 15 12 6 5 7 15 28 26 10 4 12 14 16 20 15 12 16 19 21 23 24 22 18 16 17 17 14 8 7 6 3 3 5 6 5 5 8 8 6 7 8 7 6 3 3 3 2 1 2 2 2 2 2 1 2 2 1 2 5 5 1 1 1 2 2 3 5 7
12 12 12 13 14 14 14 13 12 9 5 2 3 6 8 11 12 10 8 10 13 17 17 16 10 9 16 12 6 11 15 15 16 19 17 12 11 13 15 17 20 22 21 17 14 16 17 17 20 13 4 3 3 3 3 3 3 3 1 4 6 5 4 3 3 2 2 1 1 1 2 1 3 3 3 2 1 3 5 4 1 1 2 2 2 3 4 6
9 8 9 12 14 14 12 11 12 11 7 3 1 3 5 7 10 13 12 10 10 12 14 17 15 17 17 5 3 15 17 15 17 20 21 16 11 8 11 13 15 18 19 18 15 14 15 17 21 12 4 5 3 3 4 2 1 1 2 2 3 1 2 2 4 2 1 2 3 2 1 2 4 4 4 2 1 2 4 4 2 1 2 2 3 4 4 5
4 5 9 12 14 14 12 10 10 11 13 9 4 2 2 3 5 8 12 13 12 10 10 12 11 12 11 4 3 13 16 16 18 21 21 19 14 8 8 11 12 13 14 16 14 13 13 10 10 7 3 4 2 3 3 3 3 2 2 1 3 3 3 2 5 6 3 1 4 2 2 1 4 4 5 3 2 2 4 5 3 1 2 3 3 4 3 5
4 7 9 12 14 13 12 9 6 9 18 20 17 13 8 4 2 2 5 9 11 11 11 13 11 8 6 2 4 9 13 16 18 21 20 16 13 9 8 8 7 9 9 11 13 10 10 7 4 4 3 1 1 0 1 1 2 1 2 2 4 3 2 2 3 6 5 4 4 5 3 2 3 4 6 4 2 2 4 6 3 2 3 2 3 4 3 5
6 8 10 12 13 12 11 7 4 6 13 19 22 23 23 18 7 4 5 2 7 10 12 15 11 11 7 3 3 6 10 15 18 22 21 13 10 11 9 6 4 7 5 6 12 9 5 4 1 2 5 4 4 4 1 2 2 3 3 2 1 2 2 1 1 4 7 6 2 5 4 3 3 5 6 5 3 3 4 5 3 3 3 3 3 4 4 5
9 9 11 12 13 12 11 4 4 6 5 6 10 12 17 22 22 16 9 5 3 5 9 17 12 7 5 5 4 8 13 14 16 22 22 11 8 10 8 5 5 7 4 2 9 8 3 3 2 3 6 7 8 6 4 2 3 4 4 2 1 0 3 3 1 3 6 6 5 4 5 3 1 4 5 6 5 3 4 3 2 2 3 3 4 3 4 5
11 11 11 13 13 12 11 4 5 6 4 2 5 9 8 7 15 26 29 22 10 5 3 9 9 4 1 4 8 12 11 9 12 20 23 15 9 7 5 4 4 4 2 1 5 7 3 4 5 5 6 7 7 6 4 3 5 4 3 2 2 2 2 3 2 2 4 4 5 5 4 4 4 3 4 6 5 3 4 3 1 2 2 2 4 3 4 5
12 11 11 12 13 14 13 4 5 7 5 5 7 9 6 2 3 10 20 22 12 7 6 3 5 6 2 3 10 14 7 3 8 21 28 19 10 6 6 5 2 5 5 2 4 5 4 7 6 4 4 6 6 5 5 5 5 3 4 3 1 2 1 2 3 2 3 3 4 4 4 6 6 6 4 6 4 3 4 2 1 2 1 2 3 3 5 5
12 12 11 11 11 15 15 7 2 3 4 7 5 3 2 1 3 2 3 10 9 8 8 4 4 6 2 3 10 14 4 1 9 24 32 21 7 4 7 7 3 5 4 1 3 4 5 8 5 4 3 5 5 5 5 6 6 4 3 4 2 1 1 1 3 2 3 3 4 3 5 7 6 7 4 7 3 4 1 1 2 3 3 4 4 5 5 4
12 12 11 11 10 13 16 13 7 3 3 4 6 8 4 3 8 8 4 5 5 5 5 4 5 5 2 2 11 12 2 3 11 21 30 23 10 5 4 5 7 5 4 2 1 4 7 6 3 4 3 4 5 4 5 4 5 5 3 4 3 2 3 0 4 2 2 1 4 5 7 8 8 8 4 7 4 2 4 3 1 2 3 5 4 5 5 4
13 12 12 10 8 9 13 15 12 11 14 17 15 11 8 9 10 7 2 4 3 4 3 3 4 5 3 3 11 11 4 6 6 12 24 19 7 5 4 5 8 7 9 7 4 5 4 3 3 3 3 4 3 5 6 3 3 3 3 2 3 4 3 1 2 4 5 2 4 7 7 8 7 5 4 5 4 3 5 3 1 2 2 3 4 4 4 4
14 12 12 9 7 6 7 9 10 14 16 18 17 12 9 8 5 2 1 2 2 2 2 2 2 4 3 3 10 9 4 5 3 8 18 14 3 3 3 3 5 7 8 9 10 9 4 1 3 2 3 4 3 5 8 4 1 3 4 3 2 3 2 3 4 6 6 2 3 6 5 4 4 4 4 3 4 2 3 4 3 4 4 3 5 4 1 3
16 13 12 10 6 4 5 4 6 11 12 11 11 9 6 3 1 3 2 2 2 1 1 1 2 4 3 3 8 4 2 2 2 6 11 10 5 3 1 1 2 5 4 6 9 8 4 1 2 3 3 4 2 3 5 4 2 1 1 2 2 3 4 5 6 6 4 1 2 2 2 3 3 4 4 3 3 3 5 6 5 5 5 5 5 1 3 3
17 15 12 11 7 2 2 2 5 6 5 5 5 4 3 3 2 4 2 2 3 2 2 1 1 5 6 7 7 0 1 2 2 5 8 8 5 1 1 2 2 4 2 3 4 3 3 1 1 2 4 4 0 2 2 3 3 2 3 2 2 3 4 5 5 3 1 2 3 2 3 2 3 2 3 5 3 5 4 6 6 4 3 3 2 2 3 3
17 16 14 11 9 4 1 2 3 1 2 2 2 2 2 2 3 5 2 2 2 2 3 3 2 5 6 9 9 1 1 4 2 4 7 8 6 1 2 3 2 3 1 2 2 1 2 4 5 4 3 2 2 1 2 2 2 2 3 2 4 3 4 4 2 1 1 2 3 3 3 1 3 3 1 4 1 6 2 4 5 4 4 2 1 2 2 2
15 16 15 11 10 7 4 3 3 1 1 2 1 1 0 2 4 4 2 2 1 2 1 2 2 4 4 7 9 5 2 5 2 4 7 9 6 0 3 4 2 2 1 3 2 1 1 3 5 5 4 3 1 2 2 1 0 1 1 2 3 3 3 3 2 3 2 2 2 4 3 1 3 4 2 3 2 4 2 4 5 5 4 3 1 1 1 2
14 15 15 11 8 7 5 2 2 2 2 3 1 1 2 3 3 3 2 1 2 1 1 2 1 3 5 4 5 5 1 2 2 4 7 6 7 4 4 2 1 4 5 3 4 1 1 1 2 3 3 2 2 5 3 3 2 0 1 1 2 2 2 2 2 3 3 2 0 4 3 2 3 4 1 1 3 2 3 4 4 4 4 3 3 2 3 3
14 14 16 12 6 4 4 3 3 4 3 2 1 2 3 2 2 3 1 1 1 0 2 2 1 3 5 2 3 5 4 3 2 4 3 2 6 6 3 1 1 4 5 6 6 2 2 1 2 0 1 2 4 5 4 5 3 3 3 1 2 1 1 1 2 2 1 1 1 2 3 2 1 3 1 2 1 1 2 3 3 2 1 1 1 1 3 3
14 14 16 15 8 3 2 3 4 5 2 1 1 2 2 2 2 2 0 1 1 1 1 3 2 3 5 3 2 5 5 3 3 5 4 1 5 7 3 2 2 2 2 3 4 1 2 1 1 1 1 2 3 4 2 3 1 2 1 2 0 0 0 0 1 1 2 2 2 2 1 1 1 3 1 4 3 4 3 2 4 4 4 4 3 3 3 4
14 15 17 16 11 6 3 3 3 3 1 1 2 2 1 2 2 1 1 1 1 1 1 2 2 3 4 2 2 4 3 3 4 4 3 2 4 5 5 4 2 1 3 3 2 0 1 1 1 1 1 1 2 3 1 0 1 1 2 2 3 2 2 2 2 1 1 2 3 2 1 1 3 3 2 6 5 4 3 2 2 3 4 4 4 4 5 4
12 13 16 15 11 9 6 4 3 2 0 1 1 2 3 2 1 1 0 1 1 1 1 1 2 2 2 2 3 4 2 2 4 3 1 1 3 3 5 7 4 1 1 3 3 2 2 2 2 1 0 3 4 3 2 2 3 4 3 2 3 3 3 3 3 3 1 2 3 3 1 1 2 1 3 5 5 4 3 2 1 1 3 5 5 5 6 6
9 10 15 15 13 11 6 3 2 1 0 2 2 4 4 1 1 0 0 1 1 1 1 1 2 2 3 3 1 2 1 1 4 5 4 3 4 3 3 8 8 3 2 2 2 2 2 2 4 3 1 4 4 3 1 2 4 4 1 1 2 2 2 1 2 2 4 4 3 1 1 1 2 1 3 6 4 3 2 2 3 4 5 6 6 6 6 6
7 7 13 16 15 12 7 3 2 2 1 3 4 4 3 1 1 1 1 1 0 0 0 1 2 1 2 2 0 1 1 1 3 4 5 4 3 3 3 5 7 5 2 1 1 1 1 1 2 2 2 3 2 0 1 1 2 4 2 2 1 1 1 0 0 1 1 3 3 2 2 3 2 1 2 4 2 2 3 4 4 5 6 5 5 6 5 6
6 5 10 15 15 12 8 3 3 3 2 4 5 3 1 1 1 1 1 0 1 1 1 1 2 2 1 0 2 1 1 1 2 2 4 3 2 2 1 1 4 4 2 2 1 2 1 2 1 0 2 2 2 1 0 1 1 2 3 2 1 1 2 1 1 1 2 1 3 2 2 3 2 2 1 2 1 4 5 4 4 5 5 4 5 6 5 6
6 3 5 13 15 11 7 3 4 2 2 4 5 2 1 1 1 2 3 2 0 1 2 1 1 1 1 1 1 1 1 1 2 2 1 1 1 1 1 1 1 2 2 2 1 1 0 2 1 0 2 1 2 2 2 1 1 2 2 1 1 2 3 1 1 2 2 2 3 3 4 4 2 2 3 1 3 6 6 4 3 4 4 3 5 6 5 6
4 0 1 11 15 9 5 4 4 2 3 5 4 1 1 1 1 2 3 2 1 1 1 1 1 1 1 0 1 1 2 1 2 3 1 0 1 1 2 0 1 2 1 2 1 1 0 1 3 2 1 0 1 2 2 1 1 2 0 2 1 2 1 1 0 1 2 3 4 4 4 4 3 2 2 3 6 6 6 5 4 5 4 3 5 6 6 6
2 0 0 9 14 7 4 3 2 2 4 5 3 1 1 2 1 2 3 2 1 2 2 0 0 1 1 1 1 1 2 2 2 2 1 1 1 1 2 0 1 2 2 2 2 0 0 1 2 3 2 1 1 2 3 2 2 3 2 1 1 2 2 1 1 1 0 1 4 5 4 3 2 3 2 3 6 5 5 4 5 5 5 5 5 5 6 6
1 1 1 9 13 4 5 6 3 5 5 3 2 1 1 1 1 2 3 2 1 1 1 1 0 1 1 0 0 1 2 2 2 1 0 1 1 1 2 1 1 2 3 4 2 1 1 1 1 4 3 2 1 1 2 2 2 3 2 2 2 1 1 0 1 0 1 1 2 4 5 5 3 2 1 2 3 4 4 3 5 6 6 6 6 6 6 6
1 1 1 11 13 1 4 8 6 4 3 2 2 2 1 0 1 2 2 2 2 1 1 2 2 2 1 0 0 1 1 2 2 1 1 1 0 1 2 2 3 2 3 3 2 1 1 0 2 4 4 2 1 1 2 2 1 1 1 2 2 1 1 2 2 2 1 1 1 1 5 7 5 2 0 2 2 1 2 4 6 7 7 7 6 6 7 6
1 1 1 12 12 2 3 7 3 3 3 2 1 1 1 1 1 1 1 1 1 0 0 2 3 3 2 1 1 1 2 1 1 1 1 1 0 1 1 2 3 1 1 1 1 1 1 0 2 3 3 0 1 1 1 1 1 2 1 0 1 1 2 1 1 2 1 0 0 1 2 7 5 1 1 1 2 2 4 5 6 7 7 7 7 7 7 7
1 1 2 10 11 1 3 5 2 3 4 1 1 0 1 1 1 0 1 1 1 1 1 2 2 2 1 0 1 2 2 1 1 0 1 1 1 1 2 3 3 1 1 1 1 0 1 1 1 3 2 1 1 2 0 2 1 0 2 2 1 1 2 2 2 1 0 2 2 2 2 7 6 2 2 2 2 4 5 6 7 7 7 7 7 7 6 6
1 1 1 9 10 2 3 3 2 3 2 0 0 1 1 1 1 1 1 1 1 1 1 1 1 2 1 1 2 1 0 1 1 0 1 1 0 1 2 3 2 2 2 1 1 1 0 1 0 2 4 3 2 1 2 3 1 1 2 3 4 3 5 3 2 3 0 4 6 3 4 7 4 2 4 5 4 6 7 7 7 7 6 7 6 6 6 6
1 1 1 6 10 6 3 2 3 5 3 2 2 1 1 1 2 1 1 1 1 1 1 1 0 1 2 2 3 2 1 1 1 0 0 0 1 1 2 2 1 2 2 1 1 1 0 0 1 0 1 2 2 3 2 2 2 2 2 4 4 5 6 3 2 3 2 4 5 5 6 7 5 3 4 6 5 6 8 7 5 5 6 6 6 6 6 6
1 1 2 3 7 7 3 0 3 6 4 4 3 1 2 2 1 1 2 2 1 0 1 1 1 1 2 2 2 3 2 1 1 1 1 0 2 1 0 1 2 3 2 0 2 0 1 1 2 4 4 5 4 4 2 1 3 4 3 4 5 5 7 5 2 2 4 3 4 8 9 10 14 10 6 7 7 8 9 8 7 6 6 6 6 7 7 6
1 0 1 1 3 4 4 4 4 4 3 3 2 2 3 3 1 0 2 1 0 0 1 1 1 3 3 2 2 1 1 2 2 0 2 1 2 2 1 1 2 2 2 0 3 1 1 1 4 5 7 8 6 7 6 4 5 7 6 5 6 7 7 7 6 6 3 2 5 9 6 8 15 13 10 11 11 10 10 9 8 7 6 7 7 7 8 7
2 1 1 1 0 1 2 2 2 4 4 3 1 2 4 4 3 2 1 0 1 0 1 1 2 4 5 4 3 2 1 1 1 2 2 1 2 2 1 0 1 2 2 1 3 1 2 2 2 1 5 9 8 11 10 7 7 8 8 8 7 8 9 11 12 9 4 4 9 7 4 9 15 15 15 14 11 11 11 9 8 8 7 8 8 8 8 8
2 2 0 0 1 2 1 2 0 4 5 4 1 2 4 5 4 2 2 2 1 2 2 1 4 6 6 4 2 3 3 2 2 3 2 2 2 2 2 0 1 2 2 1 1 2 1 1 1 0 5 10 11 12 11 8 7 8 9 11 9 10 12 12 12 10 10 12 15 13 15 18 18 17 16 14 11 11 10 8 7 8 9 9 9 9 8 8
1 1 0 1 2 2 1 1 0 3 2 2 1 2 3 5 5 2 2 4 2 2 3 3 4 5 5 5 3 2 3 2 1 2 4 3 1 2 2 1 2 2 2 2 1 1 0 1 1 1 3 7 7 6 6 6 7 9 11 11 10 10 10 11 11 9 9 13 15 14 15 17 17 13 11 12 10 8 8 8 8 8 9 9 9 9 8 8
1 1 1 2 2 1 1 0 1 2 1 0 1 3 3 6 7 4 2 2 2 3 6 5 4 4 3 3 5 2 1 3 5 2 3 4 2 2 1 1 4 5 3 2 2 1 1 1 0 2 3 5 2 3 6 8 8 11 14 13 12 11 8 8 9 8 10 11 10 7 8 12 11 6 5 8 8 7 8 9 9 8 8 8 8 9 9 8
3 2 1 2 1 1 0 1 1 1 1 1 2 3 2 3 6 7 3 1 3 2 2 3 4 4 2 3 6 2 2 4 5 3 4 4 3 3 3 2 4 5 4 4 3 2 2 1 2 2 2 4 1 4 8 9 7 7 9 8 10 11 9 7 7 9 12 10 6 5 8 9 7 4 5 8 8 8 9 8 7 8 8 8 8 9 9 9
Wind_Direction
52 51 49 46 44 46 52 56 55 47 46 41 34 36 40 36 26 22 19 12 1 348 320 285 261 248 251 240 288 35 38 33 27 33 36 3 352 354 354 357 354 8 26 17 2 353 12 46 67 66 59 42 27 360 10 6 352 22 67 69 76 61 56 31 32 57 106 107 89 68 353 28 67 21 83 230 238 114 87 71 101 122 71 48 38 19 356 339
55 53 51 48 47 51 56 57 56 54 52 42 40 47 43 32 16 3 2 13 19 25 29 346 278 249 243 236 243 313 24 25 29 31 17 357 358 1 4 9 7 19 29 15 3 7 28 51 64 65 58 48 20 7 19 360 3 38 67 70 69 65 61 50 46 51 80 96 99 79 24 49 46 343 347 336 51 68 49 41 30 31 33 21 17 11 348 332
61 60 56 55 60 64 68 69 70 68 61 58 58 56 46 34 21 8 2 26 34 39 44 42 24 276 247 238 244 253 262 23 32 18 354 357 1 4 11 14 12 21 25 8 0 7 15 41 65 71 70 62 32 29 38 2 359 35 64 79 77 93 79 57 56 47 46 74 98 86 45 66 45 345 340 338 6 54 50 33 9 10 2 355 4 356 336 339
70 69 67 69 75 74 74 70 68 69 70 73 66 57 46 33 21 17 23 44 38 46 48 47 47 35 270 228 228 229 252 34 34 349 345 356 0 8 17 15 11 17 14 356 352 0 14 39 53 57 67 69 48 49 43 14 19 37 49 87 103 106 86 55 57 48 24 25 70 89 89 77 37 6 10 345 340 58 47 30 12 359 344 349 349 336 335 356
77 76 78 79 78 70 65 61 61 65 69 69 57 48 35 22 16 18 27 39 30 47 51 53 55 55 62 112 196 217 266 50 360 337 347 355 3 13 19 17 13 17 12 355 350 333 21 47 53 48 54 56 42 52 46 35 72 69 51 76 94 90 90 72 59 37 7 7 59 75 48 59 14 35 22 8 36 47 22 23 8 345 340 338 318 319 341 1
81 82 82 78 69 59 54 52 53 56 57 50 36 28 19 15 20 24 30 29 351 16 40 53 55 61 68 73 82 78 78 105 330 335 347 357 8 16 22 21 15 31 44 35 35 46 52 58 69 60 61 61 55 58 52 44 71 91 66 63 72 75 82 79 66 21 349 4 42 46 23 341 340 66 30 28 52 37 24 23 341 335 329 310 302 326 351 356
86 84 80 72 57 46 44 45 46 46 43 30 22 22 19 22 35 43 49 53 38 7 337 316 335 70 71 66 68 67 79 69 333 337 349 3 16 18 28 31 25 48 61 44 34 37 40 53 71 73 77 72 65 70 67 59 65 87 89 73 73 77 78 76 82 48 13 43 49 31 280 344 22 39 2 50 58 32 31 360 322 321 303 296 315 351 356 350
87 82 74 61 46 41 40 41 39 32 25 20 27 28 23 34 55 59 59 62 57 51 47 305 281 239 24 41 61 62 69 354 338 342 352 11 25 24 36 38 33 50 54 41 31 28 28 49 60 63 74 77 85 99 93 72 60 74 93 93 89 85 87 93 99 82 53 69 50 313 171 43 33 351 335 59 57 36 16 312 291 286 285 305 354 2 355 350
84 77 67 57 50 46 39 33 22 17 18 24 35 32 36 54 68 61 54 61 62 60 60 60 76 102 68 126 82 65 17 342 342 344 356 17 26 31 43 40 35 47 49 43 39 38 40 50 48 55 82 85 84 95 107 78 60 83 101 103 101 97 101 117 102 85 77 80 1 310 99 74 63 22 353 74 63 35 294 264 238 255 292 358 12 2 352 348
80 75 69 64 57 50 42 32 21 17 20 36 51 47 55 61 56 48 35 32 47 53 56 62 71 83 83 68 70 70 339 340 355 351 1 19 22 32 43 42 39 42 44 43 39 37 40 46 49 72 84 70 57 47 35 77 113 112 108 107 105 112 117 120 105 98 119 94 346 327 90 83 92 108 330 78 67 3 287 273 228 247 342 11 12 355 341 355
82 80 75 68 59 51 41 34 29 25 25 49 63 58 57 46 34 43 44 35 24 17 40 59 63 69 70 63 69 68 345 351 2 359 4 13 20 31 38 43 45 40 44 46 36 32 32 26 32 73 86 77 69 61 56 90 125 122 118 111 107 118 112 108 113 119 208 106 1 348 46 4 123 171 47 70 28 291 288 279 252 42 16 4 6 341 341 18
89 86 76 63 51 41 35 31 28 28 29 50 62 56 52 42 34 45 53 49 51 57 65 65 55 62 62 59 63 23 7 11 4 6 10 4 21 32 34 44 51 48 52 53 37 36 40 38 60 68 76 123 93 76 91 121 128 133 131 113 122 123 90 61 95 125 258 46 34 7 20 249 202 146 102 90 312 293 277 270 263 58 29 355 359 342 358 26
95 84 66 48 37 33 32 28 26 31 29 24 56 55 52 51 48 49 50 47 55 67 75 73 72 78 67 59 39 22 21 21 9 12 22 19 26 32 32 42 52 56 60 61 51 49 58 69 77 76 47 85 103 85 130 154 134 169 163 120 155 134 73 28 49 146 216 76 152 110 49 181 151 136 125 122 289 305 291 291 359 52 30 352 359 358 1 24
95 72 45 31 23 24 29 28 28 35 42 33 57 58 48 52 51 52 53 49 53 64 72 69 67 71 72 93 36 27 21 21 13 11 20 29 35 34 37 43 50 57 59 59 58 58 63 68 75 77 38 58 100 123 121 149 172 186 85 137 205 118 75 29 20 359 139 150 188 179 6 132 135 146 140 140 222 292 305 301 323 40 24 349 356 2 3 15
72 32 13 6 4 9 17 27 30 42 61 67 63 40 8 28 46 54 55 50 51 59 71 64 60 71 75 102 38 18 14 17 11 6 11 19 26 24 29 39 43 48 53 50 48 54 61 64 70 73 44 49 94 131 147 185 200 188 102 359 328 56 115 95 35 18 27 221 206 208 313 102 128 146 145 156 229 264 294 287 300 37 6 359 1 349 5 7
5 350 346 346 350 356 2 19 39 60 73 75 71 61 42 11 321 330 36 43 47 59 70 55 56 89 91 69 358 1 10 10 3 6 8 8 17 17 9 18 22 28 42 39 32 40 54 56 57 69 62 29 6 5 217 183 164 191 75 39 346 22 116 149 66 30 0 305 219 193 283 336 122 139 149 166 217 262 280 286 316 21 2 10 350 332 13 358
2 350 348 347 350 351 356 17 81 99 82 76 72 64 57 48 29 292 283 359 45 52 56 35 46 93 76 21 355 350 347 351 0 9 7 4 18 26 20 17 354 353 352 14 22 15 20 37 28 73 49 30 6 355 51 77 30 4 25 76 3 19 57 136 104 22 352 329 272 200 249 293 131 141 154 162 187 251 271 289 334 4 347 349 332 339 17 348
14 4 3 359 356 355 357 7 164 159 122 72 55 48 49 48 50 52 45 72 60 27 40 19 25 94 54 14 355 323 318 337 2 7 6 11 20 22 21 10 315 315 302 335 15 6 345 23 34 64 35 25 22 16 64 66 337 354 5 20 11 20 66 57 97 9 359 350 324 264 252 277 153 153 159 159 169 225 273 291 338 332 322 331 327 347 11 343
18 12 7 4 4 3 358 336 214 203 216 288 335 333 336 13 46 49 47 57 58 27 42 355 6 101 54 353 329 319 313 329 2 7 9 13 3 4 9 344 305 329 20 44 16 6 4 35 31 40 19 8 18 14 31 358 327 344 333 339 351 321 49 78 91 32 7 344 299 274 278 298 295 252 174 151 154 195 260 263 237 250 240 269 294 339 8 346
20 15 11 7 11 11 5 354 217 216 233 275 299 322 322 302 38 30 35 51 60 59 85 360 21 85 76 320 329 339 332 313 14 11 9 6 348 353 3 333 317 37 40 5 14 12 39 64 47 29 11 349 357 353 341 321 313 320 306 305 313 315 347 117 95 49 13 341 267 248 289 286 282 273 199 140 139 215 243 241 274 285 289 297 302 358 11 352
21 16 14 11 18 23 22 38 149 223 265 281 290 349 351 8 66 124 38 57 63 62 81 74 71 79 41 317 338 347 336 286 20 10 8 10 3 360 354 349 27 45 32 4 35 32 48 68 51 16 14 332 325 320 315 316 319 314 304 308 272 245 313 122 101 42 21 3 270 275 304 280 282 280 210 141 163 230 208 72 356 345 346 319 325 7 9 347
18 16 15 14 26 36 37 48 66 80 77 91 94 82 82 91 110 138 140 84 61 33 77 86 77 73 30 4 354 347 320 12 12 7 5 8 24 35 346 14 54 39 20 33 73 51 54 65 34 1 355 309 296 309 310 300 312 309 294 307 308 338 326 17 95 30 2 352 289 324 318 287 281 269 204 150 190 205 105 98 358 342 321 313 340 358 342 324
17 16 16 16 28 45 52 58 72 92 93 93 91 88 96 104 123 142 107 102 85 2 45 50 44 40 14 23 4 358 40 29 359 354 358 360 21 34 355 30 56 44 37 42 57 66 61 39 6 347 329 309 314 16 359 298 273 340 5 348 333 7 357 288 53 351 314 279 287 306 296 283 277 251 192 169 178 120 112 139 197 224 261 301 317 301 296 324
19 17 18 21 27 47 68 72 79 87 86 86 87 93 111 112 119 126 35 109 93 24 66 52 64 48 23 14 4 8 65 45 1 337 355 5 7 342 6 43 45 47 55 64 74 82 86 5 343 306 270 276 287 23 21 355 314 32 35 37 331 344 341 266 305 318 303 270 278 296 292 284 247 197 199 177 131 107 154 161 231 234 205 237 269 259 275 6
22 20 21 24 28 56 81 86 91 88 81 77 84 95 103 101 48 16 46 92 36 359 101 89 100 41 11 3 10 17 124 59 33 337 352 18 10 321 51 43 27 40 45 73 82 80 74 132 273 298 275 269 289 20 21 4 355 16 4 1 328 311 298 288 305 319 326 305 296 351 11 305 234 192 210 151 133 228 185 164 226 237 191 213 251 236 63 13
21 21 21 25 30 60 86 91 106 96 73 63 79 97 82 80 41 21 67 106 24 329 338 7 24 9 1 353 355 13 133 15 359 348 2 18 3 203 78 352 70 64 32 67 86 74 40 41 262 304 282 283 27 85 17 1 342 293 244 279 322 300 279 285 308 342 4 286 282 56 80 288 297 250 210 144 171 254 201 173 202 195 168 219 280 51 55 354
18 19 19 22 26 35 94 159 148 92 19 83 90 82 82 67 19 10 46 91 12 294 336 355 333 357 358 346 347 93 128 318 315 19 20 13 353 216 70 20 68 72 100 97 57 339 11 11 354 344 308 331 73 132 359 28 339 263 225 272 306 278 263 286 318 262 240 293 322 23 73 210 290 285 158 101 267 278 257 159 159 152 171 202 286 33 43 328
15 17 18 20 22 37 78 128 145 70 36 164 168 46 121 326 335 349 64 94 322 274 328 347 333 357 347 341 5 74 181 293 344 11 354 11 12 23 78 54 77 76 132 139 96 282 343 26 352 341 353 35 65 260 297 52 260 247 211 268 289 287 292 312 330 265 270 24 351 330 26 113 277 290 44 60 304 288 29 98 125 150 167 170 197 13 333 276
13 15 18 21 22 37 66 99 122 117 126 155 168 309 285 316 334 22 72 177 299 342 291 322 343 354 336 326 22 60 34 347 43 323 323 13 28 45 82 40 64 69 37 64 110 183 114 72 303 322 3 12 284 272 259 188 210 342 36 265 249 295 306 296 299 280 295 46 233 288 340 13 291 280 252 223 264 302 30 72 117 143 152 172 197 203 247 258
12 14 17 21 25 35 49 59 94 126 131 145 182 298 298 320 24 52 42 232 27 6 268 352 339 305 330 347 40 25 21 41 27 324 321 44 27 33 87 284 339 75 40 49 75 115 132 105 278 27 37 288 275 274 236 203 233 4 18 271 224 237 239 201 243 269 335 2 231 267 329 13 306 275 197 165 195 58 30 22 44 64 76 170 191 211 270 292
11 13 15 21 31 38 53 76 103 129 130 139 253 315 332 17 53 85 199 237 54 312 309 31 3 319 0 45 38 356 7 20 358 6 9 15 16 15 38 7 345 68 56 45 59 86 162 161 283 182 203 280 276 268 220 186 310 17 264 250 306 272 272 120 226 106 57 335 243 220 315 59 205 266 131 125 117 83 64 25 15 3 355 360 2 344 325 320
11 13 14 21 33 46 86 127 133 143 125 338 283 309 28 44 27 130 229 296 2 359 22 43 1 1 11 33 27 352 357 354 355 34 13 351 30 27 47 42 328 49 43 345 354 342 226 246 293 221 170 6 318 294 320 88 344 348 268 309 9 10 19 22 332 25 60 264 220 193 276 236 214 237 134 123 117 96 86 75 35 348 329 328 326 318 311 303
12 16 17 23 32 44 76 119 136 152 111 342 313 355 68 74 354 196 252 323 328 359 34 327 331 357 4 23 20 354 1 325 331 16 2 352 55 61 72 53 16 56 12 332 346 338 319 309 320 359 220 344 4 16 5 330 324 347 1 17 22 32 30 357 332 348 327 264 220 184 220 278 262 266 125 120 115 117 123 134 153 244 269 280 283 285 289 283
11 18 20 25 31 35 51 88 105 139 69 10 38 44 52 75 232 161 102 285 275 305 22 356 318 343 28 53 20 331 25 328 327 360 359 10 41 30 33 30 22 13 303 359 14 341 9 328 330 16 316 325 22 74 219 298 314 319 315 89 62 67 63 345 338 315 288 295 293 202 146 228 252 276 120 114 115 139 170 191 198 230 242 249 258 265 276 277
8 17 19 23 26 26 32 54 88 101 21 23 59 61 60 153 196 135 151 191 159 200 301 329 318 356 28 51 21 330 96 4 337 15 18 20 36 11 351 354 4 4 330 28 6 329 62 264 295 1 295 313 34 161 210 51 306 283 297 62 72 171 196 228 233 228 263 323 310 268 216 204 207 266 121 113 129 201 216 227 225 241 248 245 257 264 267 271
6 17 20 20 17 17 26 52 102 81 28 52 71 63 59 151 182 54 38 65 124 128 120 354 355 35 68 58 4 349 106 39 341 20 37 44 59 32 33 315 342 5 35 71 19 357 2 269 240 13 309 350 47 327 303 84 314 308 356 44 194 194 132 118 342 358 74 24 289 283 296 302 343 323 243 134 222 224 212 231 244 249 253 253 262 264 261 268
8 28 23 18 13 12 22 58 112 78 24 65 78 80 85 106 259 345 354 337 281 102 101 89 2 48 129 114 52 339 40 39 351 21 48 57 65 18 16 183 312 6 64 95 76 42 339 275 258 297 297 319 51 352 309 218 128 47 10 181 184 60 82 109 358 346 1 323 283 310 320 299 297 308 308 219 232 226 200 208 260 265 259 259 271 274 272 278
8 96 33 16 11 9 26 69 105 64 36 70 80 114 107 42 304 354 351 331 329 2 69 105 347 85 161 86 89 328 12 15 352 33 68 23 62 301 298 16 11 352 30 85 59 16 36 307 307 305 287 222 85 18 332 289 82 55 58 163 121 61 44 314 331 332 343 321 289 304 319 292 229 228 277 227 218 210 187 195 233 261 265 269 275 283 290 294
7 206 161 5 3 10 45 72 113 37 51 81 87 135 89 50 39 28 354 321 323 6 40 72 342 79 83 29 18 334 28 34 355 33 86 32 46 284 287 215 345 352 5 43 49 325 81 68 300 294 315 339 352 49 32 349 338 354 10 30 46 117 157 254 276 201 212 295 298 314 324 299 237 208 217 201 194 178 174 209 239 260 270 270 271 280 289 290
4 21 203 353 359 35 75 54 54 41 57 81 70 125 124 62 89 60 18 347 8 56 29 9 32 83 67 355 357 343 30 32 6 36 74 31 52 317 355 43 348 7 12 17 31 327 13 89 275 303 331 345 352 32 27 13 1 6 21 24 4 19 114 254 293 98 123 195 302 317 298 275 251 222 199 128 149 154 159 220 259 268 271 274 278 280 279 277
349 31 248 351 360 113 89 47 48 42 72 109 67 86 138 175 131 79 35 3 34 123 64 30 57 85 86 55 20 355 15 25 15 21 9 27 96 349 11 9 353 8 9 4 20 8 2 21 296 307 309 326 70 40 356 6 62 66 69 62 33 15 37 6 338 347 48 161 224 289 291 277 262 238 206 105 120 162 182 220 257 271 273 277 279 272 268 269
7 49 284 353 5 147 100 51 51 30 69 107 39 59 109 109 115 65 11 359 22 230 97 64 60 60 64 50 34 24 23 46 42 359 327 209 117 33 16 8 360 5 27 28 78 73 50 278 294 284 270 36 110 140 3 349 144 155 167 75 40 102 126 136 284 298 342 335 186 68 291 273 270 280 345 108 160 249 246 232 249 267 272 273 275 273 269 265
18 311 291 355 6 92 91 62 60 36 52 47 297 313 77 89 131 47 336 347 5 322 40 72 35 38 53 273 79 70 25 49 136 313 213 199 52 56 41 24 7 339 28 115 166 5 46 136 271 276 269 101 135 175 218 350 22 129 239 222 181 149 127 136 151 131 313 206 155 80 281 267 281 318 315 290 258 277 274 254 254 265 273 274 273 276 275 270
334 284 290 1 6 29 104 90 115 90 80 200 69 67 49 46 67 65 57 46 27 341 57 89 34 55 77 46 78 111 313 50 80 16 198 198 20 67 66 41 19 27 57 156 222 314 13 132 188 312 323 349 5 344 330 336 337 250 245 191 167 129 98 86 96 94 327 225 183 165 251 256 275 324 299 286 268 266 268 261 254 256 272 282 281 283 284 280
322 308 273 2 23 49 107 157 131 122 140 143 107 112 135 82 36 19 50 58 40 3 78 109 242 81 94 86 76 65 20 64 119 290 257 120 108 85 65 52 18 55 75 215 247 219 171 53 130 88 334 308 310 294 277 295 272 245 196 169 175 153 143 145 90 108 221 231 181 189 242 268 290 300 282 274 266 276 286 290 287 278 282 291 290 289 285 281
4 32 318 341 24 53 84 306 90 115 149 150 128 164 153 108 67 344 24 36 11 327 93 165 226 138 123 124 88 57 7 359 63 47 282 184 123 126 138 117 82 87 129 323 332 303 67 358 221 204 219 236 260 267 249 11 304 271 243 194 188 182 178 163 107 175 209 208 222 230 239 272 285 284 288 295 297 303 303 305 306 299 292 288 284 281 274 267
85 59 350 338 2 42 59 32 58 103 156 162 147 154 137 120 123 55 352 2 111 7 20 358 223 179 176 161 126 110 334 351 54 136 265 260 110 108 213 203 91 124 184 314 354 22 90 281 245 221 236 249 268 279 288 317 285 266 268 245 203 189 187 181 192 211 172 120 250 240 211 251 276 284 294 297 299 302 299 299 298 293 290 287 284 280 274 267
67 157 165 136 353 48 44 6 39 75 81 87 95 137 135 139 158 177 243 53 52 233 186 337 270 222 201 172 144 150 155 9 302 237 250 242 165 139 162 264 109 155 189 10 1 33 129 246 265 222 266 275 279 278 278 278 265 257 260 256 230 199 193 201 216 220 194 210 243 257 277 274 275 282 286 285 287 289 287 288 291 292 292 288 285 284 281 278
78 90 50 196 133 131 199 269 27 83 75 70 85 162 159 167 175 168 116 98 349 269 184 203 244 221 211 204 145 142 181 194 248 245 209 185 211 182 179 272 103 189 213 125 24 347 140 212 263 196 276 276 269 267 265 256 259 260 250 243 237 223 212 217 228 222 220 240 251 267 283 280 272 271 276 279 279 278 280 284 286 287 288 283 280 283 286 289
101 104 129 110 88 104 174 261 80 90 63 34 64 177 176 178 179 163 140 150 160 221 189 212 226 190 182 199 186 177 213 178 147 219 187 161 214 229 208 181 125 175 239 158 135 309 297 181 175 145 283 281 272 275 270 249 251 261 256 240 228 232 232 233 238 225 220 245 255 262 273 275 271 264 261 266 269 272 278 281 276 272 273 275 278 282 286 293
44 70 117 104 88 85 124 27 33 73 93 272 173 172 199 201 184 159 148 156 125 167 187 192 178 128 107 198 208 222 357 86 105 117 140 143 175 199 188 153 130 146 188 171 147 166 167 240 17 63 323 291 310 342 302 280 265 264 266 251 223 220 226 227 229 214 205 227 249 259 258 261 267 262 243 254 265 270 271 272 274 273 267 267 274 280 287 293
33 13 358 83 87 292 125 100 48 72 181 226 158 154 193 199 166 148 137 34 55 98 194 186 149 128 101 211 210 204 42 91 110 89 81 100 98 88 85 76 95 122 163 162 142 144 154 224 345 40 311 276 316 337 312 310 311 286 273 247 205 202 220 236 244 227 210 207 219 230 235 250 275 302 294 286 285 280 275 269 272 280 280 276 276 280 287 289